Location: Colonia Mina de C?rbuni
(46.1667°N, 22.7167°E)
Time: 01:14:35
(UTC+00:00)

CSL-04 Rocket - Pass Details

Date: 04 February 2023
Orbit: 806 x 859 km, 98.8° (Epoch: 24 March)

Event Time Altitude Azimuth Distance (km) Brightness Sun altitude
Exits shadow 18:29:37 69° 295° (WNW) 879 3.8 -29.9°
Drops below altitude 10° 18:34:37 10° 342° (NNW) 2,447 6.4 -30.8°
Sets 18:37:00 0° 345° (NNW) 3,393 7.1 -31.2°
